TimeEST,TemperatureF,Dew PointF,Humidity,Sea Level PressureIn,VisibilityMPH,Wind Direction,Wind SpeedMPH,Gust SpeedMPH,PrecipitationIn,Events,Conditions,WindDirDegrees,DateUTC
12:51 AM,19.9,16.0,85,30.09,8.0,East,3.5,-,N/A,,Mostly Cloudy,100,2014-02-16 05:51:00
1:51 AM,21.0,18.0,88,30.09,9.0,SE,4.6,-,N/A,,Overcast,130,2014-02-16 06:51:00
2:51 AM,23.0,17.1,78,30.08,10.0,SSE,3.5,-,N/A,,Overcast,160,2014-02-16 07:51:00
3:40 AM,21.9,19.0,89,30.04,2.5,Calm,Calm,-,0.00,Snow,Light Snow,0,2014-02-16 08:40:00
3:51 AM,23.0,19.0,85,30.07,1.8,South,3.5,-,0.00,Snow,Light Snow,170,2014-02-16 08:51:00
4:34 AM,21.9,19.9,92,30.03,2.0,South,3.5,-,0.01,Snow,Light Snow,190,2014-02-16 09:34:00
4:43 AM,23.0,19.9,88,30.03,3.0,Calm,Calm,-,0.01,Snow,Light Snow,0,2014-02-16 09:43:00
4:51 AM,21.9,19.9,92,30.06,2.5,South,3.5,-,0.01,Snow,Light Snow,190,2014-02-16 09:51:00
5:05 AM,21.9,19.0,89,30.02,4.0,SSE,3.5,-,0.00,Snow,Light Snow,160,2014-02-16 10:05:00
5:51 AM,21.9,19.9,92,30.04,8.0,Calm,Calm,-,0.00,,Mostly Cloudy,0,2014-02-16 10:51:00
6:51 AM,23.0,19.9,88,30.03,8.0,South,4.6,-,N/A,,Overcast,180,2014-02-16 11:51:00
7:51 AM,24.1,21.0,88,30.03,8.0,Calm,Calm,-,N/A,,Overcast,0,2014-02-16 12:51:00
8:51 AM,26.1,21.9,84,30.04,6.0,South,4.6,-,N/A,,Overcast,180,2014-02-16 13:51:00
9:51 AM,28.0,23.0,81,30.05,6.0,SW,5.8,-,N/A,,Haze,220,2014-02-16 14:51:00
10:51 AM,30.9,24.1,76,30.06,6.0,WSW,6.9,-,N/A,,Haze,240,2014-02-16 15:51:00
11:51 AM,34.0,24.1,67,30.06,10.0,WSW,9.2,-,N/A,,Overcast,250,2014-02-16 16:51:00
12:51 PM,34.0,25.0,70,30.06,10.0,WSW,10.4,-,N/A,,Overcast,250,2014-02-16 17:51:00
1:51 PM,35.1,26.1,70,30.06,10.0,SW,6.9,-,N/A,,Overcast,230,2014-02-16 18:51:00
2:51 PM,35.1,26.1,70,30.07,10.0,West,10.4,-,N/A,,Overcast,260,2014-02-16 19:51:00
3:51 PM,35.1,25.0,67,30.11,10.0,WNW,10.4,21.9,N/A,,Overcast,290,2014-02-16 20:51:00
4:12 PM,35.1,25.0,67,30.10,10.0,West,12.7,23.0,N/A,,Overcast,270,2014-02-16 21:12:00
4:51 PM,35.1,26.1,70,30.15,9.0,WNW,10.4,17.3,N/A,,Overcast,290,2014-02-16 21:51:00
5:51 PM,34.0,24.1,67,30.18,9.0,WNW,6.9,-,N/A,,Overcast,300,2014-02-16 22:51:00
6:51 PM,33.1,24.1,70,30.22,9.0,WNW,8.1,-,N/A,,Overcast,300,2014-02-16 23:51:00
7:51 PM,30.9,23.0,72,30.27,8.0,NNW,10.4,-,N/A,,Overcast,340,2014-02-17 00:51:00
8:51 PM,30.0,21.0,69,30.28,9.0,NNW,9.2,-,N/A,,Overcast,340,2014-02-17 01:51:00
9:51 PM,28.9,19.0,67,30.30,10.0,NNW,6.9,-,N/A,,Overcast,340,2014-02-17 02:51:00
10:51 PM,28.0,19.9,72,30.31,10.0,NNE,8.1,-,N/A,,Overcast,20,2014-02-17 03:51:00